SCP
0 0 0 0 0 0 0 0 0 0 0 0 0 0 0 0 0 0 0 0 0 -0 -0 -0 -0 -0 -0 -0 -0 0 0 0 0 0 0 0 0 0
0 0 0 0 0 0 0 0 0 0 0 0 0 0 0 0 0 0 0 0 0 -0 -0 -0 -0 -0 -0 0 0 0 0 0 0 0 0 0 0 0
0 0 0 0 0 0 0 0 0 0 0 0 0 0 0 0 0 0 0 0 0 -0 -0 -0 -0 -0 -0 0 0 0 0 0 0 0 0 0 0 0
0 0 0 0 0 0 0 0 0 0 0 0 0 0 0 0 0 0 0 0 0 -0 -0 -0 -0 -0 0 0 0 0 0 0 0 0 0 0 0 0
0 0 0 0 0 0 0 0 0 0 0 0 0 0 0 0 0 0 0 0 0 0 -0 -0 0 0 0 0 0 0 0 0 0 0 0 0 0 0
0 0 0 0 0 0 0 0 0 0 0 0 0 0 0 0 0 0 0 0 0 0 0 0 0 0 0 0 0 0 0 0 0 0 0 0 0 0
0 0 0 0 0 0 0 0 0 0 0 0 0 0 0 0 0 0 0 0 0 0 0 0 0 0 0 0 0 0 0 0 0 0 0 0 0 0
0 0 0 0 0 0 0 0 0 0 0 0 0 0 0 0 0 0 0 0 0 -0 0 0 0 0 0 0 0 0 0 0 0 0 0 0 0 0
0 0 0 0 0 0 0 0 0 0 0 0 0 0 0 0 0 0 0 0 0 -0 -0 0 0 0 0 0 0 0 0 0 0 0 0 0 0 0
0 0 0 0 0 0 0 0 0 -0 -0 0 -0 0 0 0 0 0 0 0 0 -0 -0 0 0 0 0 0 0 0 0 0 0 0 0 0 0 0
0 0 0 0 0 0 0 0 -0 -0 -0 -0 -0 -0 -0 -0 -0 -0 0 0 0 0 0 0 0 0 0 0 0 0 0 0 0 0 0 0 0 0
0 0 0 0 0 0 0 0 -0 -0 0 0 0 -0 -0 -0 -0 -0 0 0 0 0 0 0 0 0 0 0 0 0 0 0 0 0 0 0 0 0
0 0 0 0 0 -0 -0 -0 0 -0 -0 0 0 0 0 0 0 0 0 0 0 0 0 0 0 0 0 0 0 0 0 0 0 0 0 0 0 0
0 0 0 0 -0 -0 0 -0 -0 -0 0 0 0 0 0 0 0 0 0 0 0 0 0 0 0 0 0 0 0 0 0 0 0 0 0 0 0 0
0 0 0 0 0 0 -0 -0 0 0 0 0 0 0 0 0 0 0 0 0 0 0 0 0 0 0 0 0 0 0 0 0 0 0 0 0 0 0
0 0 0 0 0 0 0 0 0 0 0 0 0 0 0 0 0 0 0 0 0 0 0 0 0 0 0 0 0 0 0 0 0 0 0 0 0 0
0 0 0 0 0 0 0 0 0 0 0 0 0 0 0 0 0 0 0 0 0 0 0 0 0 0 0 0 0 0 0 0 0 0 0 0 0 0
0 0 0 0 0 0 0 0 0 0 0 0 0 0 0 0 0 0 0 0 0 0 0 0 0 0 0 0 0 0 0 0 0 0 0 0 0 0
0 0 0 0 0 0 0 0 0 0 0 0 0 0 0 0 0 0 0 0 0 0 0 0 0 0 0 0 0 0 0 0 0 0 0 0 0 0
0 0 0 0 0 0 0 0 0 0 0 0 0 0 0 0 0 0 0 0 0 0 0 0 0 0 0 0 0 0 0 0 0 0 0 0 0 0
0 0 0 0 0 0 0 0 0 0 0 0 0 0 0 0 0 0 0 0 0 0 0 0 0 0 0 0 0 0 0 0 0 0 0 0 0 0
0 0 0 0 0 0 0 0 0 0 0 0 0 0 0 0 0 0 0 0 0 0 0 0 0 0 0 0 0 0 0 0 0 0 0 0 0 0
0 0 0 0 0 0 0 0 0 0 0 0 0 0 0 0 0 0 0 0 0 0 0 0 0 0 0 0 0 0 0 0 0 0 0 0 0 0
Wind_Speed_500mb
29 29 33 32 31 37 40 34 19 14 18 22 21 17 9 1 15 16 16 18 20 23 25 26 32 34 38 42 46 52 59 69 76 75 66 69 69 68
32 40 38 25 14 19 16 21 22 17 20 14 16 13 9 5 8 8 10 13 16 20 23 26 31 38 41 43 46 52 56 66 75 76 72 68 68 69
10 6 7 4 22 23 20 19 21 17 15 9 9 13 10 3 3 5 9 13 17 21 23 25 35 38 40 44 47 46 53 58 66 66 64 71 66 69
19 16 16 23 27 19 17 17 17 11 7 9 9 13 12 5 5 6 9 12 17 21 27 28 35 36 39 44 49 43 46 52 58 60 65 67 66 67
19 23 19 19 16 8 5 8 12 9 11 12 9 12 13 12 11 10 11 12 16 22 25 28 36 37 41 45 51 50 50 48 51 54 58 58 57 55
16 12 10 10 8 7 8 8 10 12 11 13 13 13 15 18 16 14 11 12 17 20 23 28 32 35 37 46 50 51 49 48 47 44 51 55 57 57
14 11 10 10 9 11 12 9 10 11 12 9 8 15 16 18 18 18 14 14 18 17 21 24 29 33 34 43 44 41 40 41 43 45 46 48 49 51
9 6 7 6 8 9 8 8 9 8 7 6 12 14 16 18 16 18 15 14 13 13 16 25 27 33 35 37 31 29 31 36 38 38 39 41 43 46
7 6 4 4 6 5 8 9 10 11 12 14 13 17 17 19 18 16 15 13 14 17 16 23 23 26 26 23 20 19 23 25 28 32 35 38 41 44
7 3 3 3 4 8 10 8 9 10 11 12 17 17 20 20 20 18 18 20 17 14 12 20 20 19 15 15 16 15 18 20 24 25 29 33 36 39
4 6 7 9 7 9 9 9 9 15 19 21 19 18 20 21 20 19 18 18 14 11 9 11 19 15 9 6 11 12 15 19 20 22 23 26 30 34
8 7 8 7 10 11 11 11 11 14 20 22 23 22 22 21 19 16 12 12 12 11 11 10 13 13 8 4 2 1 8 13 19 21 18 21 27 30
11 10 9 8 9 11 11 15 19 21 23 25 24 24 23 21 19 17 15 15 12 6 10 11 14 14 11 8 7 5 2 3 9 16 14 16 21 23
15 15 13 13 15 15 17 19 21 23 26 27 27 26 25 24 21 19 20 18 13 10 11 12 11 10 12 11 11 11 9 5 5 12 14 17 20 21
19 19 18 20 20 21 22 24 27 28 30 30 32 31 29 28 26 25 22 18 15 15 16 14 11 9 11 13 12 15 15 10 8 8 11 15 11 14
23 23 23 26 28 27 27 28 30 32 33 35 36 33 32 31 30 29 27 23 21 22 19 16 13 11 12 14 15 15 17 15 10 10 11 14 14 16
32 32 32 32 34 33 34 35 37 37 39 41 40 38 39 39 37 36 35 33 31 29 27 23 20 19 17 17 18 19 21 20 16 15 15 14 12 16
38 38 38 38 37 37 38 39 42 44 44 46 45 45 46 47 46 47 46 43 40 38 36 32 30 29 26 23 21 23 23 22 20 19 19 18 15 20
46 46 43 42 41 41 42 42 42 41 45 49 50 51 52 54 57 56 54 53 52 48 45 43 40 38 36 34 29 28 28 25 22 21 20 21 20 22
53 50 49 48 47 47 47 46 45 47 51 54 56 56 58 58 60 61 61 60 57 55 55 54 51 46 44 40 38 31 30 32 29 25 24 23 23 22
56 54 50 48 47 47 48 51 52 52 52 54 55 55 55 58 61 61 62 63 62 63 65 62 54 46 51 52 50 43 36 33 35 33 26 27 25 22
63 60 54 51 50 49 50 49 53 58 60 61 61 59 59 62 65 63 64 66 67 69 67 61 57 56 61 63 58 53 46 41 40 40 35 31 26 14
71 67 62 59 56 54 53 55 56 57 59 61 63 64 63 66 65 66 66 68 70 69 67 68 67 66 66 65 60 59 58 50 47 43 42 36 33 29
Wind_Direction_500mb
237 257 262 280 270 265 262 268 274 263 251 256 256 256 237 278 339 322 354 349 359 2 8 17 24 24 27 31 34 32 39 38 40 34 33 42 37 28
255 267 251 275 268 283 282 258 248 254 241 258 261 227 221 270 320 8 19 13 11 23 28 27 31 34 33 34 41 45 49 44 47 43 40 40 42 38
212 306 217 152 240 255 260 254 251 259 265 253 233 215 230 255 62 64 52 39 30 35 39 36 41 42 38 46 46 51 46 44 43 43 45 44 44 45
218 229 245 247 247 260 266 263 254 261 238 254 229 240 244 141 126 100 77 57 46 41 46 43 49 48 49 52 46 46 44 44 42 50 55 53 50 45
227 248 240 246 228 227 238 249 255 248 237 249 259 228 190 169 151 141 109 74 59 52 53 52 60 55 60 60 50 47 59 55 52 52 51 52 53 53
207 191 214 209 183 255 268 248 225 229 240 260 234 204 190 172 167 146 131 98 72 59 59 61 66 67 70 66 55 54 61 65 60 52 50 50 51 49
162 169 163 186 208 243 249 241 226 229 237 241 228 203 187 178 170 157 148 105 85 70 72 77 75 75 73 72 67 61 59 60 62 59 53 49 45 43
152 198 220 222 254 269 272 252 247 233 242 213 199 186 176 168 162 172 168 136 102 85 90 81 83 83 71 69 75 66 57 58 55 50 44 40 41 43
179 187 217 205 233 250 258 261 264 229 196 179 180 163 162 155 149 156 160 157 152 123 99 94 96 93 77 53 63 55 60 48 46 47 42 42 40 40
148 176 220 238 283 271 240 210 200 204 192 166 157 159 154 151 148 150 150 156 147 131 124 111 117 106 85 42 33 30 41 40 45 50 43 35 35 38
241 257 237 250 250 235 226 211 194 189 165 166 160 159 157 166 161 154 143 145 158 169 166 142 140 134 116 64 12 15 61 39 42 46 35 38 40 41
249 261 260 245 221 204 208 185 183 183 180 173 166 168 171 169 165 164 155 150 173 164 178 171 173 158 154 160 354 50 47 48 34 32 39 41 37 35
235 239 249 227 217 204 200 186 179 186 188 185 180 181 179 175 173 176 182 193 207 190 182 196 215 232 228 194 204 212 207 39 23 24 29 27 27 27
248 248 243 229 217 205 195 199 199 201 199 197 195 196 191 189 186 186 191 190 186 191 202 204 212 220 224 228 192 198 212 224 324 337 354 10 11 19
247 245 241 232 226 216 210 211 210 212 210 207 206 204 204 204 202 205 206 202 204 211 209 209 214 226 235 240 250 203 213 239 265 295 311 326 356 13
254 249 241 232 228 226 226 224 225 226 225 223 220 215 216 218 219 219 221 221 227 230 227 225 227 231 239 252 247 242 227 230 250 262 286 310 339 352
256 251 242 234 234 233 229 228 233 234 233 232 230 227 228 230 231 233 232 231 235 240 241 239 238 237 238 240 245 251 252 253 243 245 269 290 329 341
260 259 256 252 245 241 238 237 236 236 237 240 240 237 237 238 237 239 240 239 240 243 246 246 244 242 240 243 247 249 254 254 246 246 261 280 303 320
252 253 254 257 257 253 248 244 245 244 243 242 244 243 242 241 242 242 243 243 245 246 248 249 246 245 242 244 250 249 253 254 255 257 260 271 284 298
251 256 261 260 260 261 263 262 256 246 245 246 245 244 246 247 249 250 250 251 251 251 250 250 250 248 248 247 248 258 255 252 257 257 259 269 276 286
266 267 266 267 268 269 268 267 264 261 260 257 255 256 256 256 256 255 255 254 254 254 253 254 257 251 246 246 248 251 255 252 253 253 252 257 264 273
268 270 271 270 268 266 264 262 263 264 263 262 262 259 257 258 259 258 257 256 255 258 260 259 254 248 247 249 252 254 254 251 250 249 248 247 250 251
274 274 273 271 268 267 264 263 264 263 262 263 263 264 262 262 264 264 262 260 260 257 256 255 253 250 249 250 251 251 253 250 246 248 245 246 247 249
Wind_Speed_850mb
29 29 33 32 31 37 40 34 19 14 18 22 21 17 9 1 15 16 16 18 20 23 25 26 32 34 38 42 46 52 59 69 76 75 66 69 69 68
32 40 38 25 14 19 16 21 22 17 20 14 16 13 9 5 8 8 10 13 16 20 23 26 31 38 41 43 46 52 56 66 75 76 72 68 68 69
10 6 7 4 22 23 20 19 21 17 15 9 9 13 10 3 3 5 9 13 17 21 23 25 35 38 40 44 47 46 53 58 66 66 64 71 66 69
19 16 16 23 27 19 17 17 17 11 7 9 9 13 12 5 5 6 9 12 17 21 27 28 35 36 39 44 49 43 46 52 58 60 65 67 66 67
19 23 19 19 16 8 5 8 12 9 11 12 9 12 13 12 11 10 11 12 16 22 25 28 36 37 41 45 51 50 50 48 51 54 58 58 57 55
16 12 10 10 8 7 8 8 10 12 11 13 13 13 15 18 16 14 11 12 17 20 23 28 32 35 37 46 50 51 49 48 47 44 51 55 57 57
14 11 10 10 9 11 12 9 10 11 12 9 8 15 16 18 18 18 14 14 18 17 21 24 29 33 34 43 44 41 40 41 43 45 46 48 49 51
9 6 7 6 8 9 8 8 9 8 7 6 12 14 16 18 16 18 15 14 13 13 16 25 27 33 35 37 31 29 31 36 38 38 39 41 43 46
7 6 4 4 6 5 8 9 10 11 12 14 13 17 17 19 18 16 15 13 14 17 16 23 23 26 26 23 20 19 23 25 28 32 35 38 41 44
7 3 3 3 4 8 10 8 9 10 11 12 17 17 20 20 20 18 18 20 17 14 12 20 20 19 15 15 16 15 18 20 24 25 29 33 36 39
4 6 7 9 7 9 9 9 9 15 19 21 19 18 20 21 20 19 18 18 14 11 9 11 19 15 9 6 11 12 15 19 20 22 23 26 30 34
8 7 8 7 10 11 11 11 11 14 20 22 23 22 22 21 19 16 12 12 12 11 11 10 13 13 8 4 2 1 8 13 19 21 18 21 27 30
11 10 9 8 9 11 11 15 19 21 23 25 24 24 23 21 19 17 15 15 12 6 10 11 14 14 11 8 7 5 2 3 9 16 14 16 21 23
15 15 13 13 15 15 17 19 21 23 26 27 27 26 25 24 21 19 20 18 13 10 11 12 11 10 12 11 11 11 9 5 5 12 14 17 20 21
19 19 18 20 20 21 22 24 27 28 30 30 32 31 29 28 26 25 22 18 15 15 16 14 11 9 11 13 12 15 15 10 8 8 11 15 11 14
23 23 23 26 28 27 27 28 30 32 33 35 36 33 32 31 30 29 27 23 21 22 19 16 13 11 12 14 15 15 17 15 10 10 11 14 14 16
32 32 32 32 34 33 34 35 37 37 39 41 40 38 39 39 37 36 35 33 31 29 27 23 20 19 17 17 18 19 21 20 16 15 15 14 12 16
38 38 38 38 37 37 38 39 42 44 44 46 45 45 46 47 46 47 46 43 40 38 36 32 30 29 26 23 21 23 23 22 20 19 19 18 15 20
46 46 43 42 41 41 42 42 42 41 45 49 50 51 52 54 57 56 54 53 52 48 45 43 40 38 36 34 29 28 28 25 22 21 20 21 20 22
53 50 49 48 47 47 47 46 45 47 51 54 56 56 58 58 60 61 61 60 57 55 55 54 51 46 44 40 38 31 30 32 29 25 24 23 23 22
56 54 50 48 47 47 48 51 52 52 52 54 55 55 55 58 61 61 62 63 62 63 65 62 54 46 51 52 50 43 36 33 35 33 26 27 25 22
63 60 54 51 50 49 50 49 53 58 60 61 61 59 59 62 65 63 64 66 67 69 67 61 57 56 61 63 58 53 46 41 40 40 35 31 26 14
71 67 62 59 56 54 53 55 56 57 59 61 63 64 63 66 65 66 66 68 70 69 67 68 67 66 66 65 60 59 58 50 47 43 42 36 33 29
Wind_Direction_850mb
237 257 262 280 270 265 262 268 274 263 251 256 256 256 237 278 339 322 354 349 359 2 8 17 24 24 27 31 34 32 39 38 40 34 33 42 37 28
255 267 251 275 268 283 282 258 248 254 241 258 261 227 221 270 320 8 19 13 11 23 28 27 31 34 33 34 41 45 49 44 47 43 40 40 42 38
212 306 217 152 240 255 260 254 251 259 265 253 233 215 230 255 62 64 52 39 30 35 39 36 41 42 38 46 46 51 46 44 43 43 45 44 44 45
218 229 245 247 247 260 266 263 254 261 238 254 229 240 244 141 126 100 77 57 46 41 46 43 49 48 49 52 46 46 44 44 42 50 55 53 50 45
227 248 240 246 228 227 238 249 255 248 237 249 259 228 190 169 151 141 109 74 59 52 53 52 60 55 60 60 50 47 59 55 52 52 51 52 53 53
207 191 214 209 183 255 268 248 225 229 240 260 234 204 190 172 167 146 131 98 72 59 59 61 66 67 70 66 55 54 61 65 60 52 50 50 51 49
162 169 163 186 208 243 249 241 226 229 237 241 228 203 187 178 170 157 148 105 85 70 72 77 75 75 73 72 67 61 59 60 62 59 53 49 45 43
152 198 220 222 254 269 272 252 247 233 242 213 199 186 176 168 162 172 168 136 102 85 90 81 83 83 71 69 75 66 57 58 55 50 44 40 41 43
179 187 217 205 233 250 258 261 264 229 196 179 180 163 162 155 149 156 160 157 152 123 99 94 96 93 77 53 63 55 60 48 46 47 42 42 40 40
148 176 220 238 283 271 240 210 200 204 192 166 157 159 154 151 148 150 150 156 147 131 124 111 117 106 85 42 33 30 41 40 45 50 43 35 35 38
241 257 237 250 250 235 226 211 194 189 165 166 160 159 157 166 161 154 143 145 158 169 166 142 140 134 116 64 12 15 61 39 42 46 35 38 40 41
249 261 260 245 221 204 208 185 183 183 180 173 166 168 171 169 165 164 155 150 173 164 178 171 173 158 154 160 354 50 47 48 34 32 39 41 37 35
235 239 249 227 217 204 200 186 179 186 188 185 180 181 179 175 173 176 182 193 207 190 182 196 215 232 228 194 204 212 207 39 23 24 29 27 27 27
248 248 243 229 217 205 195 199 199 201 199 197 195 196 191 189 186 186 191 190 186 191 202 204 212 220 224 228 192 198 212 224 324 337 354 10 11 19
247 245 241 232 226 216 210 211 210 212 210 207 206 204 204 204 202 205 206 202 204 211 209 209 214 226 235 240 250 203 213 239 265 295 311 326 356 13
254 249 241 232 228 226 226 224 225 226 225 223 220 215 216 218 219 219 221 221 227 230 227 225 227 231 239 252 247 242 227 230 250 262 286 310 339 352
256 251 242 234 234 233 229 228 233 234 233 232 230 227 228 230 231 233 232 231 235 240 241 239 238 237 238 240 245 251 252 253 243 245 269 290 329 341
260 259 256 252 245 241 238 237 236 236 237 240 240 237 237 238 237 239 240 239 240 243 246 246 244 242 240 243 247 249 254 254 246 246 261 280 303 320
252 253 254 257 257 253 248 244 245 244 243 242 244 243 242 241 242 242 243 243 245 246 248 249 246 245 242 244 250 249 253 254 255 257 260 271 284 298
251 256 261 260 260 261 263 262 256 246 245 246 245 244 246 247 249 250 250 251 251 251 250 250 250 248 248 247 248 258 255 252 257 257 259 269 276 286
266 267 266 267 268 269 268 267 264 261 260 257 255 256 256 256 256 255 255 254 254 254 253 254 257 251 246 246 248 251 255 252 253 253 252 257 264 273
268 270 271 270 268 266 264 262 263 264 263 262 262 259 257 258 259 258 257 256 255 258 260 259 254 248 247 249 252 254 254 251 250 249 248 247 250 251
274 274 273 271 268 267 264 263 264 263 262 263 263 264 262 262 264 264 262 260 260 257 256 255 253 250 249 250 251 251 253 250 246 248 245 246 247 249